Location: Chevoux
(46.3801°N, 4.9476°E)
Time: 17:26:58
(UTC+00:00)

CZ-2C R/B - Pass Details

Date: 28 January 2021
Orbit: 785 x 870 km, 98.2° (Epoch: 28 February)

Event Time Altitude Azimuth Distance (km) Brightness Sun altitude
Exits shadow 18:33:46 13° 25° (NNE) 2,318 4.7 -19.8°
Maximum altitude 18:38:41 50° 99° (E) 1,093 2.8 -20.7°
Drops below altitude 10° 18:44:07 10° 174° (S) 2,509 5.1 -21.6°
Sets 18:46:34 0° 180° (S) 3,441 5.9 -22.0°
